Location: Boleita
(10.4833°N, 66.8167°W)
Time: 01:23:14
(UTC+00:00)

IRS-1D - Pass Details

Date: 08 November 2025
Orbit: 735 x 812 km, 98.8° (Epoch: 08 December)

Event Time Altitude Azimuth Distance (km) Brightness Sun altitude
Rises 09:44:48 0° 353° (N) 3,157 6.5 -9.2°
Reaches altitude 10° 09:47:23 10° 340° (NNW) 2,232 5.6 -8.6°
Maximum altitude 09:51:24 26° 285° (WNW) 1,428 4.3 -7.6°
Drops below altitude 10° 09:55:25 10° 229° (SW) 2,240 5.6 -6.7°
Sets 09:58:02 0° 217° (SW) 3,169 6.5 -6.1°
